CAPE
5 9 14 14 11 9 4 2 2 1 3 2 0 0 0 0 0 0 0 0 0 0 0 0 0 0 0 0 0 0 0 0 0 0 0 0 0 0 0 0 0 0 0 0 0
13 13 14 12 6 5 5 1 2 1 1 1 1 2 0 0 0 0 0 0 0 0 0 0 0 0 0 0 0 0 0 0 0 0 0 0 0 0 0 0 0 0 0 0 2
9 11 12 10 7 6 3 5 2 2 0 1 1 2 2 0 0 0 0 0 0 0 0 0 0 0 0 0 0 0 0 0 0 0 0 0 0 0 0 0 0 0 0 0 3
5 8 8 7 8 2 2 2 1 1 1 0 2 3 0 0 0 0 0 0 0 0 0 0 0 0 0 0 0 0 0 0 0 0 0 0 0 0 0 0 0 0 0 0 17
11 14 18 10 3 0 0 0 0 0 0 1 4 5 0 0 0 0 0 0 0 0 0 0 0 0 0 0 0 0 0 0 0 0 0 0 0 0 0 0 0 0 0 0 0
9 9 15 8 4 0 0 1 1 0 0 0 6 6 1 0 0 0 0 0 0 0 0 0 0 0 0 0 0 0 0 0 0 0 0 0 0 0 0 0 0 0 0 0 0
12 11 11 4 0 0 0 1 0 0 0 0 3 2 2 0 0 0 0 0 0 0 0 0 0 0 0 0 0 0 0 0 0 0 0 0 0 0 0 0 0 0 0 0 0
17 19 23 9 0 0 1 0 0 0 0 0 0 0 0 0 0 0 0 0 0 0 0 0 0 0 0 0 0 0 0 0 0 0 0 0 0 0 0 0 0 0 0 0 0
12 11 15 10 2 4 0 0 0 0 0 0 0 0 0 0 0 0 0 0 0 0 0 0 0 0 0 0 0 0 0 0 0 0 0 0 0 0 0 0 0 0 0 0 0
13 12 9 4 4 1 0 0 0 0 0 0 0 0 0 0 0 0 0 0 0 0 0 0 0 0 0 0 0 0 0 0 0 0 0 0 0 0 0 0 0 0 0 0 0
12 11 10 2 1 1 0 0 0 0 0 0 0 0 0 0 0 0 0 0 0 0 0 0 0 0 0 0 0 0 0 0 0 0 0 0 0 0 0 0 0 0 0 0 0
6 4 3 0 0 0 0 0 4 0 5 0 0 0 0 0 0 0 0 0 0 0 0 0 0 0 0 0 0 0 0 0 0 0 0 0 0 0 0 0 0 0 0 0 0
4 1 2 0 0 0 0 0 0 0 0 0 0 0 0 0 0 0 0 0 0 0 0 0 0 0 0 0 0 0 0 0 0 0 0 0 0 0 0 0 0 0 0 0 0
1 1 3 0 0 0 0 0 0 0 0 0 0 0 0 0 0 0 0 0 0 0 0 0 0 0 0 0 0 0 0 0 0 0 0 0 0 0 0 0 0 0 0 0 0
0 2 7 0 0 0 0 0 0 0 0 0 0 0 0 0 0 0 0 0 0 0 0 0 0 0 0 0 0 0 0 0 0 0 0 0 0 0 0 0 0 0 0 0 0
0 6 7 0 0 0 0 0 0 0 0 0 0 0 0 0 0 0 0 0 0 0 0 0 0 0 0 0 0 0 0 0 0 0 0 0 0 0 0 0 0 0 0 0 0
2 3 0 0 0 0 0 0 0 0 0 0 0 0 0 0 1 1 0 0 0 0 0 0 0 0 0 0 0 0 0 0 0 0 0 0 0 0 0 0 0 0 0 0 0
3 0 0 0 0 0 0 0 0 0 0 0 0 0 0 0 11 2 13 0 0 0 0 0 0 0 0 0 0 0 0 0 0 0 0 0 0 0 0 0 0 0 0 0 0
0 0 0 0 0 0 0 0 0 0 0 0 0 0 4 0 2 17 0 8 38 1 0 0 0 0 0 0 0 0 0 0 0 0 0 0 0 0 0 0 0 0 0 0 0
0 0 0 0 0 0 0 0 0 0 0 1 3 4 0 0 6 12 5 8 20 3 7 0 0 3 0 0 0 0 0 0 0 0 0 0 0 0 4 0 0 0 0 0 0
0 0 0 0 0 0 0 0 0 0 0 5 0 1 2 1 29 15 12 6 0 0 18 0 0 24 29 1 0 0 0 0 0 0 0 0 0 0 0 0 0 0 0 0 0
0 0 0 0 0 0 0 0 5 0 0 0 0 0 2 24 31 12 16 1 0 5 50 2 0 0 1 8 0 0 0 0 0 0 0 0 0 0 0 0 0 0 1 0 0
0 0 0 0 0 0 0 0 0 0 0 5 1 12 6 11 13 7 7 0 0 9 3 8 0 0 49 5 0 0 0 0 0 0 0 0 0 0 3 0 0 2 0 0 0
0 0 0 16 5 0 1 0 0 0 0 1 0 6 8 4 6 2 33 20 16 2 12 3 18 0 1 0 0 0 0 0 0 0 0 0 14 32 15 6 0 0 0 0 0
0 0 0 0 0 0 0 0 0 0 0 0 0 1 5 2 0 0 10 1 5 34 29 0 7 1 0 1 0 4 0 0 0 0 0 0 0 0 47 15 4 0 10 2 0
0 0 1 0 0 0 0 0 0 0 0 0 0 0 0 0 0 0 0 0 0 0 0 0 0 0 0 0 0 0 0 1 0 0 0 0 0 0 0 15 12 46 12 0 0
0 0 0 0 0 0 0 0 0 0 0 0 2 0 0 0 0 0 0 0 0 0 0 3 1 0 0 0 0 0 0 0 0 0 0 0 0 0 0 7 7 0 0 0 0
CIN
0 0 0 -0 0 0 0 -0 0 0 0 0 -0 0 0 0 0 0 0 0 0 0 0 0 0 0 0 0 0 0 0 0 0 0 0 0 0 0 0 0 0 0 0 0 0
-0 0 0 -0 -0 -0 0 -0 0 -0 -0 0 -0 -0 0 0 0 0 0 0 0 0 0 0 0 0 0 0 0 0 0 0 0 0 0 0 0 0 0 0 0 0 0 0 -566
0 0 0 0 0 0 0 0 0 0 0 0 -0 0 0 0 0 0 0 0 0 0 0 0 0 0 0 0 0 0 0 0 0 0 0 0 0 0 0 0 0 0 0 0 -551
0 0 0 0 0 0 0 0 -0 0 0 0 0 0 0 0 0 0 0 0 0 0 0 0 0 0 0 0 0 0 0 0 0 0 0 0 0 0 0 0 0 0 0 0 -440
-0 -0 -0 0 -0 0 0 0 0 0 0 0 0 0 0 0 0 0 0 0 0 0 0 0 0 0 0 0 0 0 0 0 0 0 0 0 0 0 0 0 0 0 0 0 0
-0 -0 -0 0 0 0 0 0 0 0 0 0 0 -0 -0 0 0 0 0 0 0 0 0 0 0 0 0 0 0 0 0 0 0 0 0 0 0 0 0 0 0 0 0 0 0
-0 -0 -0 0 0 0 0 0 0 0 0 0 -0 -0 0 0 0 0 0 0 0 0 0 0 0 0 0 0 0 0 0 0 0 0 0 0 0 0 0 0 0 0 0 0 0
-0 -0 0 0 0 0 0 0 0 0 0 0 0 0 0 0 0 0 0 0 0 0 0 0 0 0 0 0 0 0 0 0 0 0 0 0 0 0 0 0 0 0 0 0 0
-0 0 0 0 0 0 0 0 0 0 0 0 0 0 0 0 0 0 0 0 0 0 0 0 0 0 0 0 0 0 0 0 0 0 0 0 0 0 0 0 0 0 0 0 0
0 0 -0 0 0 0 0 0 0 0 0 0 -1 0 0 0 0 0 0 0 0 0 0 0 0 0 0 0 0 0 0 0 0 0 0 0 0 0 0 0 0 0 0 0 0
-0 -0 -0 0 0 0 0 0 0 0 0 0 0 0 0 0 0 0 0 0 0 0 0 0 0 0 0 0 0 0 0 0 0 0 0 0 0 0 0 0 0 0 0 0 0
0 0 0 0 0 0 0 0 -5 0 0 0 0 0 0 0 0 0 0 0 0 0 0 0 0 0 0 0 0 0 0 0 0 0 0 0 0 0 0 0 0 0 0 0 0
0 -0 0 0 0 0 0 0 0 0 0 0 0 0 0 0 0 0 0 0 0 0 0 0 0 0 0 0 0 0 0 0 0 0 0 0 0 0 0 0 0 0 0 0 0
-0 0 0 0 0 0 0 0 0 0 0 0 0 0 0 0 0 0 0 0 0 0 0 0 0 0 0 0 0 0 0 0 0 0 0 0 0 0 0 0 0 0 0 0 0
0 0 -0 0 0 0 0 0 0 -0 0 0 0 0 0 0 0 0 0 0 0 0 0 0 0 0 0 0 0 0 0 0 0 0 0 0 0 0 0 0 0 0 0 0 0
-0 -0 -0 0 0 0 0 0 0 0 0 0 0 0 0 0 0 0 0 0 0 0 0 0 0 0 0 0 0 0 0 0 0 0 0 0 0 0 0 0 0 0 0 0 0
-0 -0 0 0 0 0 0 0 0 0 0 0 0 0 0 0 -15 -19 0 0 0 0 0 0 0 0 0 0 0 0 0 0 0 0 0 0 0 0 0 0 0 0 0 0 0
0 0 0 0 0 0 0 0 0 0 0 -1 0 0 0 0 -93 -38 -55 0 0 0 0 0 0 0 0 0 0 0 0 0 0 0 0 0 0 0 0 0 0 0 0 0 0
0 0 0 0 0 0 0 0 0 0 0 0 0 0 -34 0 -0 -57 0 0 -12 -65 0 0 0 0 0 0 0 0 0 0 0 0 0 0 0 0 0 0 0 0 0 0 0
0 0 0 0 0 0 0 0 0 0 0 -1 -0 -0 0 0 -0 0 0 -0 0 -0 -1 0 0 -23 0 0 0 0 0 0 0 0 0 0 0 0 -16 0 0 0 0 0 0
0 0 0 0 0 0 0 0 0 0 0 -7 0 -0 0 -0 0 0 0 0 0 0 0 0 0 -45 -46 -13 0 0 0 0 0 0 0 0 0 0 0 0 0 0 0 0 0
0 0 0 0 0 0 0 0 -1 0 0 0 -9 0 -3 0 0 -0 0 -0 0 -0 0 0 0 0 -6 -128 0 0 0 0 0 0 0 0 0 0 0 0 0 0 -229 0 0
0 0 0 0 -0 0 0 0 -1 -0 0 -1 -1 -9 -13 -7 -1 -0 -8 0 0 -1 0 0 0 0 -67 -65 0 0 0 0 0 0 0 -0 0 0 -195 0 0 -187 0 0 0
0 0 0 0 -0 0 -1 0 0 0 0 -0 0 -3 -32 -36 -21 -1 -7 -32 -60 -30 -0 0 0 0 0 0 0 0 0 0 0 0 0 0 -64 -105 -166 -148 -15 0 0 -38 0
0 0 0 0 0 0 0 0 0 0 0 0 0 -6 -26 0 0 -2 -9 -18 -69 -33 -42 -5 0 -1 0 -1 0 -2 0 0 0 0 0 0 0 0 -136 -112 -151 0 -164 -142 0
0 0 0 -2 0 0 0 0 0 0 0 0 -0 0 0 -0 -3 0 0 -4 0 0 0 -0 0 0 0 0 0 0 0 0 0 0 0 0 0 0 0 -155 -161 -100 -113 0 0
0 0 0 0 0 0 0 0 0 0 0 0 -4 0 0 0 0 0 0 0 0 0 0 -6 -4 0 0 0 0 0 0 0 0 0 0 0 0 0 0 -99 -90 0 0 0 0
Wind_Speed
15 16 17 18 19 19 20 20 20 22 23 24 25 25 26 25 27 3 8 10 6 10 7 7 4 4 3 3 4 4 3 5 7 8 6 3 2 2 4 4 4 3 3 5 4
15 15 16 18 19 20 21 21 20 21 22 23 25 25 25 25 8 8 12 10 9 1 5 7 6 7 2 3 3 5 5 11 8 7 6 2 1 1 5 7 6 6 2 3 3
16 16 18 18 19 22 22 22 22 22 21 22 23 24 24 20 6 6 5 4 8 6 2 1 5 7 3 3 5 5 8 5 6 7 4 2 6 1 2 9 8 8 10 2 4
14 15 16 17 19 21 22 21 24 24 23 21 22 22 23 4 7 1 10 5 5 5 1 3 3 5 5 7 6 5 7 8 4 6 2 7 2 5 7 12 11 11 7 5 9
15 15 16 18 19 22 22 23 24 26 25 22 20 18 7 5 13 7 9 10 1 5 4 3 4 5 5 5 4 7 3 7 7 7 6 7 14 9 11 14 11 11 7 10 10
15 15 16 18 21 23 24 24 24 26 26 24 18 9 1 5 4 4 9 8 4 2 1 5 6 6 4 5 8 3 8 14 9 9 6 10 18 2 12 5 9 10 11 10 11
15 15 17 19 22 24 25 26 26 25 26 25 12 3 3 22 5 13 11 5 4 4 4 5 4 2 1 4 5 5 8 7 7 6 7 5 7 15 13 7 10 11 8 8 12
15 17 17 20 22 24 26 29 29 25 20 11 4 5 10 6 6 11 3 8 8 10 11 7 5 5 5 5 5 3 4 4 4 10 6 9 26 3 9 6 9 9 9 8 9
16 17 18 19 22 24 27 31 27 14 6 10 5 4 12 6 3 5 6 5 7 5 5 3 7 7 3 4 3 4 6 5 5 7 4 10 17 3 1 3 8 9 8 9 10
16 17 18 19 22 25 28 28 14 4 2 4 4 3 6 6 5 13 4 5 6 4 3 5 2 4 2 6 13 6 6 5 6 3 5 8 18 7 10 4 9 9 12 10 10
15 17 18 20 22 24 17 6 10 8 7 6 14 12 21 14 15 7 2 7 4 2 5 5 4 20 15 10 10 9 6 9 2 4 3 7 16 7 10 7 9 10 9 11 9
15 17 18 21 23 15 8 7 5 9 17 14 22 29 24 14 16 17 4 5 5 7 4 3 17 5 9 10 10 9 14 19 4 5 6 11 28 13 7 9 10 10 11 11 7
14 16 18 21 18 5 3 6 7 9 7 7 9 9 5 8 10 5 11 7 10 14 13 13 9 15 11 7 12 17 20 9 8 1 7 3 26 16 10 6 8 8 10 9 11
14 15 18 20 7 5 3 8 11 5 5 8 5 7 2 3 8 8 10 9 8 23 10 12 16 14 5 12 10 17 10 8 9 5 7 5 13 2 5 9 5 9 9 10 9
13 14 14 11 4 3 6 8 12 2 5 3 5 2 11 4 20 3 2 4 23 8 10 24 8 11 16 18 12 8 10 12 7 6 2 3 5 6 2 3 8 5 9 12 11
13 12 12 2 2 5 6 9 3 4 9 9 6 23 23 27 15 10 7 6 4 8 8 15 2 10 13 9 18 7 3 3 3 4 6 9 8 4 4 4 4 6 12 16 14
12 12 9 2 3 2 5 4 5 2 10 9 14 20 28 16 13 8 10 6 5 4 7 13 10 3 5 5 5 7 8 2 1 3 6 11 7 9 5 3 6 4 10 14 15
13 13 2 3 1 0 3 6 5 4 4 7 11 29 14 17 12 16 11 5 5 3 1 7 6 16 7 8 8 11 14 7 8 5 5 8 8 7 10 8 7 5 10 15 18
10 3 3 2 2 2 5 5 5 3 4 7 18 10 13 17 13 10 7 7 2 8 4 4 6 4 11 9 10 5 9 8 3 1 2 5 4 8 5 7 7 6 12 13 14
2 3 3 3 4 3 4 4 4 5 9 7 8 7 16 24 13 9 6 12 13 12 4 4 3 4 4 6 7 9 8 4 1 6 7 3 3 4 2 6 7 6 7 8 15
3 4 3 4 2 3 2 5 5 8 9 4 7 13 19 14 8 8 10 6 18 12 14 3 3 6 1 4 8 4 5 5 6 5 6 2 6 4 4 4 8 3 6 9 16
2 3 2 2 3 1 2 4 7 7 6 9 10 11 8 8 6 4 7 7 17 15 8 5 4 4 7 5 2 2 4 10 5 7 2 3 6 5 7 8 8 5 8 7 16
1 2 3 3 1 2 4 5 5 5 5 3 6 6 10 5 5 9 5 9 9 12 4 6 3 3 1 4 6 4 2 3 5 3 6 6 5 2 4 7 6 7 7 9 14
2 2 4 1 1 2 3 5 5 5 5 5 9 9 10 5 3 6 9 5 7 2 12 4 3 6 3 2 8 7 6 6 4 5 7 3 4 5 4 1 5 6 7 10 11
2 4 2 2 2 3 3 4 4 6 3 5 4 9 11 5 6 5 5 7 11 6 5 2 5 4 7 8 5 5 8 12 4 1 6 3 2 2 5 5 4 6 7 8 12
4 3 2 2 3 3 3 3 4 5 4 5 6 15 11 5 5 13 11 5 6 8 7 2 3 4 7 9 5 1 2 12 6 3 4 4 6 5 6 6 8 7 7 5 8
2 1 4 3 2 2 3 1 4 8 7 7 10 13 7 6 9 17 15 13 10 7 4 4 1 2 3 6 9 2 6 9 5 2 5 3 4 5 5 8 7 7 8 4 7
Wind_Direction
358 356 353 352 348 343 340 337 334 335 335 335 336 336 332 325 321 300 252 229 184 244 173 127 105 150 99 153 123 131 99 211 226 165 236 244 33 313 283 274 347 226 196 258 118
355 355 353 351 345 340 336 334 330 330 331 332 334 334 330 328 316 264 256 264 224 203 139 157 140 130 162 198 183 153 175 214 200 199 207 243 289 335 356 324 294 297 267 6 146
351 348 346 343 342 338 333 327 324 326 326 328 330 332 327 329 303 247 358 61 205 231 291 255 118 145 191 157 207 203 219 217 230 216 220 235 291 159 219 292 230 275 280 197 193
347 343 344 346 343 340 334 325 323 322 321 323 326 330 325 308 299 87 12 30 180 170 235 164 149 167 191 204 210 241 230 209 237 224 247 249 222 255 189 244 269 252 247 201 207
351 342 341 343 341 335 328 322 319 315 316 318 322 330 354 337 250 306 9 0 36 144 183 177 163 182 196 201 211 230 231 239 228 235 236 280 260 245 253 261 259 270 235 231 220
350 347 343 338 336 329 326 321 316 313 310 312 312 326 168 268 257 36 359 339 291 243 180 175 208 210 250 230 208 255 233 249 247 248 242 253 267 250 255 227 251 258 254 232 215
345 343 342 341 335 329 328 321 313 310 308 309 294 193 205 243 331 329 325 270 209 228 283 229 230 186 143 294 261 256 273 262 230 222 236 207 257 238 253 234 242 255 276 254 226
354 350 345 342 331 327 328 321 310 313 316 316 155 144 245 268 304 298 220 283 238 228 220 238 198 224 185 245 314 267 254 235 227 193 231 152 260 250 246 204 247 276 271 270 257
346 346 346 342 332 331 326 311 313 328 34 105 93 120 266 284 292 301 186 276 285 199 205 251 135 190 194 161 293 233 251 241 296 195 178 189 270 222 173 227 276 280 286 288 291
348 350 348 343 336 337 327 316 315 46 72 175 149 306 280 322 311 322 294 292 320 338 154 150 181 202 170 157 226 207 249 240 210 233 225 256 268 285 281 258 264 279 290 286 290
355 357 355 345 342 346 336 7 10 349 50 243 273 274 280 278 288 237 141 343 320 253 188 189 176 220 204 212 223 246 259 256 328 239 269 259 268 254 269 287 272 271 271 281 274
2 1 359 350 341 9 358 59 50 275 297 265 258 259 258 277 291 267 218 194 193 225 203 224 234 213 186 200 220 220 241 252 267 261 282 283 278 281 243 251 246 250 263 258 267
3 1 360 345 334 34 18 54 309 316 278 302 266 274 264 184 252 267 197 201 200 206 195 213 221 205 193 193 210 228 230 225 242 284 272 312 281 283 250 233 259 269 247 251 244
360 1 3 343 48 318 24 332 328 312 309 288 294 289 336 258 270 238 224 198 223 221 151 226 234 232 178 230 202 244 169 177 216 161 247 152 285 158 246 263 243 261 263 267 250
354 356 2 23 275 353 295 323 323 53 328 341 297 232 352 303 313 315 250 207 243 201 144 227 148 183 219 223 182 246 167 195 181 194 241 219 301 267 94 332 257 300 327 309 263
349 347 348 5 328 247 307 317 31 63 254 314 323 343 340 330 312 278 220 195 216 217 264 243 171 179 218 193 201 164 104 101 104 130 252 183 183 245 187 204 47 5 353 337 307
337 337 328 244 239 227 318 23 56 169 348 334 338 338 322 315 317 354 303 209 202 161 206 248 243 239 174 139 157 150 121 199 231 202 221 189 186 255 268 271 94 38 7 355 357
337 329 325 228 298 348 33 53 89 306 302 334 326 313 307 19 329 330 306 341 249 287 177 169 254 204 215 185 170 177 183 176 209 194 197 164 221 247 220 138 123 107 65 27 13
337 344 348 288 173 106 76 65 209 252 331 320 319 308 319 325 337 328 309 312 353 15 306 187 265 210 195 186 164 200 192 183 73 305 67 212 284 315 183 151 117 69 67 37 15
21 17 300 321 150 64 70 247 229 227 286 322 294 299 308 313 319 323 293 14 344 347 319 297 281 257 188 117 238 175 156 131 234 212 237 251 232 215 176 179 109 24 66 42 30
50 34 301 105 41 37 171 239 280 264 278 226 271 286 289 307 282 309 351 318 2 336 326 290 231 282 51 191 169 177 180 195 161 166 188 235 248 230 237 76 106 8 36 27 41
78 33 281 34 50 211 259 223 305 267 244 251 249 266 266 312 289 300 336 317 335 328 319 294 293 203 228 309 241 88 180 191 171 207 241 163 247 334 126 111 117 56 55 30 55
79 272 311 124 129 263 271 269 244 299 297 298 287 277 305 278 303 301 252 273 308 335 305 305 349 251 280 345 359 38 323 288 220 102 195 151 251 38 120 98 104 95 78 53 47
91 338 318 290 90 285 305 285 311 298 288 340 266 316 332 313 309 286 331 299 305 264 281 282 328 39 70 325 288 295 344 329 198 190 206 204 167 190 238 116 134 98 102 83 60
74 249 212 279 303 279 304 268 302 339 306 356 321 356 337 287 298 331 324 316 318 328 306 132 10 1 35 8 28 306 323 337 30 17 186 129 127 302 197 166 133 94 78 83 75
143 157 213 274 278 260 277 279 328 321 273 300 319 323 310 276 288 303 311 298 269 326 323 353 307 329 358 322 353 225 311 307 256 141 120 95 64 356 97 102 99 83 80 73 98
223 338 103 264 252 89 242 290 303 312 282 267 307 310 281 267 303 281 272 265 260 293 305 303 185 303 295 326 314 77 212 230 275 288 154 141 123 76 75 94 98 100 82 41 51